GW5927 Weather Reports


time (UTC)temp
C
wind
direction
speed
KPH
gust
KPH
rain 1hr
cm
rain 24hr
cm
rain mn
cm
humidity
%
barometer
mb
20260504001926 27 236 3.2 4.8 0.00 0.00 0.00 34 1010.0
20260504001426 27 96 6.4 8.0 0.00 0.00 0.00 32 1010.0
20260504000928 27 138 3.2 6.4 0.00 0.00 0.00 37 1010.0
20260504000426 27 108 4.8 6.4 0.00 0.00 0.00 35 1010.0
20260503235926 27 121 3.2 4.8 0.00 0.00 0.00 35 1010.0
20260503235426 27 100 4.8 6.4 0.00 0.00 0.00 32 1010.0
20260503234927 27 151 1.6 4.8 0.00 0.00 0.00 35 1010.0
20260503234426 27 54 1.6 4.8 0.00 0.00 0.00 35 1010.0
20260503233926 27 79 3.2 4.8 0.00 0.00 0.00 35 1010.0
20260503233426 27 114 3.2 6.4 0.00 0.00 0.00 35 1010.0
20260503232926 27 110 4.8 6.4 0.00 0.00 0.00 36 1010.0
20260503232426 27 90 4.8 6.4 0.00 0.00 0.00 37 1010.0
20260503231926 27 120 4.8 8.0 0.00 0.00 0.00 35 1010.0
20260503231426 27 108 3.2 6.4 0.00 0.00 0.00 36 1011.0
20260503230926 27 95 6.4 8.0 0.00 0.00 0.00 36 1011.0
20260503230427 27 25 3.2 4.8 0.00 0.00 0.00 34 1011.0
20260503225926 27 41 4.8 8.0 0.00 0.00 0.00 35 1011.0
20260503225426 27 31 4.8 9.7 0.00 0.00 0.00 35 1011.0
20260503224928 27 48 3.2 8.0 0.00 0.00 0.00 35 1011.0
20260503224427 27 63 4.8 8.0 0.00 0.00 0.00 34 1011.0
20260503223926 27 49 6.4 9.7 0.00 0.00 0.00 33 1011.0
20260503223426 27 66 6.4 11.3 0.00 0.00 0.00 34 1011.0
20260503222926 27 97 6.4 9.7 0.00 0.00 0.00 36 1011.0
20260503222426 27 114 3.2 6.4 0.00 0.00 0.00 39 1011.0
20260503221927 27 53 4.8 9.7 0.00 0.00 0.00 36 1011.0
20260503221426 27 65 4.8 6.4 0.00 0.00 0.00 36 1011.0
20260503220926 27 37 4.8 9.7 0.00 0.00 0.00 35 1011.0
20260503220426 27 74 4.8 8.0 0.00 0.00 0.00 36 1011.0
20260503215926 27 28 3.2 6.4 0.00 0.00 0.00 36 1011.0
20260503215426 27 109 1.6 4.8 0.00 0.00 0.00 45 1012.0
20260503214927 27 23 3.2 9.7 0.00 0.00 0.00 37 1012.0
20260503214428 27 94 3.2 4.8 0.00 0.00 0.00 36 1012.0
20260503213927 27 61 4.8 8.0 0.00 0.00 0.00 37 1012.0
20260503213427 27 115 6.4 9.7 0.00 0.00 0.00 37 1012.0
20260503212926 26 131 4.8 9.7 0.00 0.00 0.00 36 1012.0
20260503212427 26 35 1.6 4.8 0.00 0.00 0.00 36 1012.0
20260503211929 26 90 6.4 8.0 0.00 0.00 0.00 35 1012.0
20260503211426 26 92 4.8 6.4 0.00 0.00 0.00 39 1012.0
20260503210926 26 7 3.2 6.4 0.00 0.00 0.00 39 1012.0
20260503210426 26 88 3.2 6.4 0.00 0.00 0.00 36 1012.0
20260503205926 26 85 6.4 9.7 0.00 0.00 0.00 38 1012.0
20260503205427 26 50 3.2 8.0 0.00 0.00 0.00 37 1012.0
20260503204926 26 103 3.2 6.4 0.00 0.00 0.00 46 1012.0
20260503204426 26 135 1.6 4.8 0.00 0.00 0.00 39 1012.0
20260503203927 26 123 3.2 6.4 0.00 0.00 0.00 43 1012.0
20260503203430 26 121 4.8 6.4 0.00 0.00 0.00 41 1012.0
20260503202926 26 74 3.2 8.0 0.00 0.00 0.00 42 1012.0
20260503202427 26 128 3.2 4.8 0.00 0.00 0.00 42 1013.0
20260503201927 25 104 3.2 6.4 0.00 0.00 0.00 42 1013.0
20260503201426 25 138 1.6 3.2 0.00 0.00 0.00 46 1013.0
20260503200926 25 57 8.0 14.5 0.00 0.00 0.00 42 1013.0
20260503200428 25 29 4.8 9.7 0.00 0.00 0.00 41 1013.0
20260503195927 25 13 3.2 6.4 0.00 0.00 0.00 41 1013.0
20260503195426 25 126 4.8 6.4 0.00 0.00 0.00 42 1013.0
20260503194927 25 54 1.6 3.2 0.00 0.00 0.00 42 1013.0
20260503194426 25 35 3.2 6.4 0.00 0.00 0.00 45 1013.0
20260503193926 24 47 4.8 9.7 0.00 0.00 0.00 42 1013.0
20260503193426 24 118 4.8 6.4 0.00 0.00 0.00 44 1013.0
20260503192927 24 92 3.2 4.8 0.00 0.00 0.00 44 1013.0
20260503192426 24 37 3.2 8.0 0.00 0.00 0.00 42 1013.0
20260503191926 24 30 3.2 9.7 0.00 0.00 0.00 42 1013.0
20260503191426 24 24 3.2 6.4 0.00 0.00 0.00 44 1013.0
20260503190927 24 67 4.8 8.0 0.00 0.00 0.00 42 1014.0
20260503190427 23 120 3.2 8.0 0.00 0.00 0.00 44 1014.0
20260503185928 23 128 4.8 9.7 0.00 0.00 0.00 45 1014.0
20260503185427 23 29 1.6 6.4 0.00 0.00 0.00 45 1014.0
20260503184927 23 10 6.4 9.7 0.00 0.00 0.00 46 1014.0
20260503184427 23 57 4.8 9.7 0.00 0.00 0.00 45 1014.0
20260503183927 23 107 4.8 8.0 0.00 0.00 0.00 45 1014.0
20260503183426 23 117 3.2 6.4 0.00 0.00 0.00 47 1014.0
20260503182926 22 33 4.8 19.3 0.00 0.00 0.00 45 1014.0
20260503182426 22 67 6.4 8.0 0.00 0.00 0.00 47 1014.0
20260503181926 22 51 6.4 11.3 0.00 0.00 0.00 46 1014.0
20260503181427 22 38 3.2 8.0 0.00 0.00 0.00 49 1014.0
20260503180928 22 56 4.8 9.7 0.00 0.00 0.00 47 1014.0
20260503180427 22 23 6.4 9.7 0.00 0.00 0.00 48 1014.0
20260503175926 22 15 3.2 6.4 0.00 0.00 0.00 47 1014.0
20260503175426 22 37 4.8 11.3 0.00 0.00 0.00 48 1014.0
20260503174927 22 81 4.8 9.7 0.00 0.00 0.00 48 1014.0
20260503174426 22 93 4.8 9.7 0.00 0.00 0.00 50 1014.0
20260503173927 22 61 3.2 8.0 0.00 0.00 0.00 49 1014.0
20260503173426 21 201 0.0 3.2 0.00 0.00 0.00 53 1014.0
20260503172926 21 63 8.0 12.9 0.00 0.00 0.00 51 1014.0
20260503172427 21 63 3.2 4.8 0.00 0.00 0.00 52 1014.0
20260503171926 21 64 6.4 11.3 0.00 0.00 0.00 50 1014.0
20260503171428 21 32 1.6 6.4 0.00 0.00 0.00 52 1014.0
20260503170926 21 30 6.4 11.3 0.00 0.00 0.00 51 1014.0
20260503170426 21 93 6.4 9.7 0.00 0.00 0.00 51 1014.0
20260503150927 14 151 1.6 3.2 0.00 0.00 0.00 84 1015.0
20260503150427 13 127 0.0 3.2 0.00 0.00 0.00 92 1015.0
20260503130926 6 347 0.0 1.6 0.00 0.00 0.00 96 1013.0
20260503130426 6 35 0.0 1.6 0.00 0.00 0.00 96 1013.0
20260503110426 7 46 0.0 0.0 0.00 0.00 0.00 96 1014.0
20260503090426 8 77 0.0 1.6 0.00 0.00 0.00 94 1014.0
20260503081426 8 352 0.0 1.6 0.00 0.00 0.00 93 1014.0
20260503080926 8 342 0.0 3.2 0.00 0.00 0.00 93 1014.0
20260503080426 8 89 0.0 1.6 0.00 0.00 0.00 92 1014.0
20260503072928 9 50 0.0 1.6 0.00 0.00 0.00 92 1014.0
20260503072426 9 5 0.0 1.6 0.00 0.00 0.00 92 1014.0
20260503071927 9 289 0.0 1.6 0.00 0.00 0.00 92 1014.0
20260503071427 9 346 0.0 1.6 0.00 0.00 0.00 91 1014.0
20260503070926 9 345 0.0 1.6 0.00 0.00 0.00 91 1014.0
20260503070429 10 8 0.0 1.6 0.00 0.00 0.00 91 1014.0
20260503054926 10 309 0.0 1.6 0.00 0.00 0.00 85 1013.0
20260503054426 11 314 0.0 1.6 0.00 0.00 0.00 85 1013.0
20260503053927 11 0 0.0 0.0 0.00 0.00 0.00 85 1013.0
20260503053427 11 21 0.0 1.6 0.00 0.00 0.00 85 1013.0
20260503052926 11 0 0.0 0.0 0.00 0.00 0.00 84 1013.0
20260503052426 11 321 1.6 1.6 0.00 0.00 0.00 82 1013.0
20260503051928 11 280 0.0 0.0 0.00 0.00 0.00 82 1013.0
20260503051427 12 333 0.0 1.6 0.00 0.00 0.00 81 1013.0
20260503050926 12 281 3.2 3.2 0.00 0.00 0.00 80 1013.0
20260503050426 12 274 1.6 3.2 0.00 0.00 0.00 81 1013.0
20260503045926 12 255 1.6 3.2 0.00 0.00 0.00 79 1013.0
20260503045427 12 282 1.6 3.2 0.00 0.00 0.00 77 1013.0
20260503044926 13 293 1.6 3.2 0.00 0.00 0.00 74 1013.0
20260503044426 13 290 3.2 3.2 0.00 0.00 0.00 73 1013.0
20260503043926 13 288 1.6 3.2 0.00 0.00 0.00 74 1013.0
20260503043426 13 289 1.6 3.2 0.00 0.00 0.00 75 1013.0
20260503042927 13 296 1.6 3.2 0.00 0.00 0.00 75 1013.0
20260503042426 13 287 1.6 3.2 0.00 0.00 0.00 73 1013.0
20260503041927 13 315 1.6 3.2 0.00 0.00 0.00 72 1013.0
20260503041427 14 311 1.6 3.2 0.00 0.00 0.00 72 1013.0
20260503040926 14 317 0.0 1.6 0.00 0.00 0.00 72 1013.0
20260503040426 15 325 1.6 3.2 0.00 0.00 0.00 70 1013.0
20260503035928 15 14 0.0 3.2 0.00 0.00 0.00 72 1013.0
20260503035427 15 290 0.0 1.6 0.00 0.00 0.00 69 1013.0
20260503034926 15 330 0.0 1.6 0.00 0.00 0.00 65 1013.0
20260503034427 15 339 1.6 3.2 0.00 0.00 0.00 71 1013.0
20260503033927 15 315 3.2 4.8 0.00 0.00 0.00 71 1013.0
20260503033426 15 292 3.2 4.8 0.00 0.00 0.00 67 1012.0
20260503032926 16 292 3.2 4.8 0.00 0.00 0.00 66 1012.0
20260503032428 16 309 1.6 3.2 0.00 0.00 0.00 68 1012.0
20260503031927 16 321 3.2 6.4 0.00 0.00 0.00 68 1013.0
20260503031426 16 312 3.2 4.8 0.00 0.00 0.00 67 1012.0
20260503030927 17 314 3.2 4.8 0.00 0.00 0.00 70 1012.0
20260503025944 17 352 3.2 4.8 0.00 0.00 0.00 65 1012.0
20260503025426 17 339 3.2 4.8 0.00 0.00 0.00 64 1012.0
20260503024928 18 337 3.2 4.8 0.00 0.00 0.00 57 1012.0
20260503024427 18 325 1.6 3.2 0.00 0.00 0.00 58 1012.0
20260503023926 18 296 0.0 1.6 0.00 0.00 0.00 57 1012.0
20260503023426 19 334 1.6 3.2 0.00 0.00 0.00 59 1012.0
20260503022927 19 300 1.6 3.2 0.00 0.00 0.00 56 1012.0
20260503022428 20 329 1.6 3.2 0.00 0.00 0.00 57 1012.0
20260503021927 20 332 3.2 3.2 0.00 0.00 0.00 51 1012.0
20260503021427 20 342 1.6 4.8 0.00 0.00 0.00 47 1012.0
20260503020928 21 2 1.6 3.2 0.00 0.00 0.00 49 1012.0
20260503020427 21 319 0.0 3.2 0.00 0.00 0.00 48 1012.0
20260503015928 21 40 3.2 6.4 0.00 0.00 0.00 44 1012.0
20260503015426 21 16 1.6 4.8 0.00 0.00 0.00 46 1012.0
20260503014926 21 59 3.2 9.7 0.00 0.00 0.00 45 1012.0
20260503014426 22 36 3.2 6.4 0.00 0.00 0.00 44 1013.0
20260503013926 22 328 3.2 6.4 0.00 0.00 0.00 44 1012.0
20260503013426 22 84 1.6 6.4 0.00 0.00 0.00 43 1012.0
20260503012928 22 2 1.6 4.8 0.00 0.00 0.00 44 1012.0
20260503012426 22 60 3.2 6.4 0.00 0.00 0.00 42 1012.0
20260503011926 22 348 0.0 3.2 0.00 0.00 0.00 44 1012.0
20260503011428 22 355 3.2 4.8 0.00 0.00 0.00 44 1012.0
20260503010927 23 11 1.6 4.8 0.00 0.00 0.00 44 1012.0
20260503010426 23 48 0.0 1.6 0.00 0.00 0.00 43 1012.0
20260503005926 23 2 3.2 4.8 0.00 0.00 0.00 42 1012.0
20260503005427 23 40 4.8 11.3 0.00 0.00 0.00 42 1012.0
20260503004926 23 64 1.6 6.4 0.00 0.00 0.00 41 1012.0
20260503004426 24 84 3.2 6.4 0.00 0.00 0.00 40 1013.0
20260503003927 24 76 3.2 6.4 0.00 0.00 0.00 41 1013.0
20260503003426 24 308 1.6 4.8 0.00 0.00 0.00 43 1013.0
20260503002926 24 63 1.6 3.2 0.00 0.00 0.00 44 1013.0
20260503002428 24 64 6.4 11.3 0.00 0.00 0.00 40 1013.0